CZ-6A DEB

Satellite information

Favourite Embed

Satellite Type and Status

DEBRISIN ORBIT

Key statistics

Satellite CZ-6A DEB at a glance.

Uptime

279

Days in orbit

Revolutions

≈ 14.2

Per day

Orbit

LEO

Low Earth Orbit

Inclination

89.1

Latest

Satellite identification and parameters

Extended collection of information and parameters for CZ-6A DEB.

Object identification

Identified? True

Debris? True

Object name: CZ-6A DEB

International designator: 2024-140BQ

Object number (NORAD): 60663

Object ID (CCSDS): 60663

Country: PEOPLES REPUBLIC OF CHINA (PRC)

Current information (Y/N): Y

RCS size: MEDIUM

Orbital parameters

Period: 101.669 minutes

Inclination: 89.1089 deg

SMA: 7215.839 km

Apoapsis: 881.817 km

Periapsis: 793.592 km

RAAN: 323.6128 deg

Eccentricy: 0.0061133

Argument of periapsis: 65.4993 deg

Mean anomaly: 295.2553 deg

Mean motion: 14.16356165 rev/day

Mean motion (dot): 0.00000371 rev/day2

B* drag term: 0.00017646 1/REarth

Two-line elements (TLE)

Creation date: May 12, 2025, 2:31 a.m.

Reference frame: TEME

Reference center: EARTH

Epoch: May 11, 2025, 6:53 p.m. UTC

TLE line 0: 0 CZ-6A DEB

TLE line 1: 1 60663U 24140BQ 25131.78703734 .00000371 00000-0 17646-3 0 9991

TLE line 2: 2 60663 89.1089 323.6128 0061133 65.4993 295.2553 14.16356165 39048

Live tracking on map

Real-time ground track for satellite CZ-6A DEB.

In-orbit conjunctions

A list of the most updated potential collisions computed for object CZ-6A DEB.

Target Orbit TCA Probability of collision Miss distance Type
THORAD AGENA D DEB SSO 2025-01-28 07:57:33 0.0002522479 61.0 (m) DEBRIS
DMSP 5D-2 F13 DEB SSO 2024-11-29 03:04:34 0.0001140877 923.0 (m) DEBRIS

Associated space launch

18 Low Earth Orbit communication satellites with Ku, Q and V band payloads for the G60 constellation operated by Shanghai Spacecom Satellite Technology (SSST) with funding backed by the Shanghai local government. Initial constellation will consist of 1296 satellites by 2027 with long term plans to expand it to 12000 satellites.

CZ-6A DEB was lifted into orbit during the mission ‘Long March 6A | G60 Polar Group 01’, on board a Long March 6A space rocket.

The launch took place on Aug. 6, 2024, 6:42 a.m. from Launch Complex 9A.

For more information about the launch, click the button.

Launch to space Long March 6A | G60 Polar Group 01
Long March 6A | G60 Polar Group 01

Agency: N/A

Status: Launch Successful

Launch date: Aug. 6, 2024, 6:42 a.m. UTC

Rocket: Long March 6A

Launch pad: Launch Complex 9A

Location: Taiyuan Satellite Launch Center, People's Republic of China

...

Latest news about this satellite

News about space launch
Brightness of first Chinese broadband constellation satellites alarms astronomers

The first satellites of a Chinese broadband constellation are significantly brighter than those of Western systems, posing a new challenge for astronomers.

News about space launch
Chinese rocket stage breaks up into cloud of more than 700 pieces of space debris

HELSINKI — A Chinese Long March 6A rocket’s upper stage has fragmented into a cloud of over 700 pieces of space debris, adding to concerns about long-term orbital safety. China […]

News about space launch
China's Thousand Sails Megaconstellation Kicks Off with Dangerous Debris Field

China's Thousand Sails Megaconstellation Kicks Off with Dangerous Debris Field


Newsletter sign-up

Weekly statistics, charts and insights to help you stay on top of the space industry.